Meriden, CT

1:52 AM EDT on March 24, 2017 (GMT -0400)
Meriden Markham Municipal

Weather History for KMMK - March, 2013

Change the Weather History Date:

Sunday, March 3, 2013

  Actual Average (KOXC) Record (KOXC)
Temperature  
Mean Temperature 31 °F -  
Max Temperature 34 °F 38 °F 55 °F (2002)
Min Temperature 28 °F 23 °F 3 °F (2003)
Degree Days  
Heating Degree Days 34    
Moisture  
Dew Point 20 °F    
Average Humidity 62    
Maximum Humidity 72    
Minimum Humidity 52    
Precipitation  
Precipitation 0.00 in - - ()
Sea Level Pressure  
Sea Level Pressure 29.68 in    
Wind  
Wind Speed 11 mph (NW)    
Max Wind Speed 16 mph    
Max Gust Speed 24 mph    
Visibility 10 miles    
Events      
Averages and records for this station are not official NWS values.
T = Trace of Precipitation, MM = Missing Value Source: NWS Daily Summary

Daily Weather History Graph

Daily Weather History Graph

Search for Another Location

Airport or City:

Trip Planner

Search our weather history database for the weather conditions in past years. The results will help you decide how hot, cold, wet, or windy it might be!

Date:

Astronomy

Mar. 03, 2013 Rise Set
Actual Time 6:22 AM EST 5:44 PM EST
Civil Twilight 5:54 AM EST 6:12 PM EST
Nautical Twilight 5:22 AM EST 6:44 PM EST
Astronomical Twilight 4:50 AM EST 7:16 PM EST
Moon No Moon Rise 9:30 AM EST (3/3)
Length of Visible Light 12h 17m
Length of Day
11h 22m
Waning Gibbous, 64% of the Moon is Illuminated
Mar 3
Waning Gibbous
Mar 4
Last Quarter
Mar 11
New
Mar 19
First Quarter
Mar 27
Full

Hourly Weather History & Observations

Time (EST) Temp. Windchill Dew Point Humidity Pressure Visibility Wind Dir Wind Speed Gust Speed Precip Events Conditions
12:53 AM 30.9 °F 22.2 °F 21.9 °F 69% 29.70 in 10.0 mi NW 10.4 mph - N/A   Overcast
1:53 AM 30.9 °F 22.2 °F 21.0 °F 67% 29.70 in 10.0 mi NW 10.4 mph 18.4 mph N/A   Overcast
2:53 AM 30.9 °F 22.2 °F 21.0 °F 67% 29.68 in 10.0 mi NW 10.4 mph - N/A   Overcast
3:53 AM 30.0 °F 21.1 °F 19.9 °F 66% 29.68 in 10.0 mi NNW 10.4 mph - N/A   Overcast
4:53 AM 28.9 °F 17.7 °F 19.9 °F 69% 29.69 in 10.0 mi NW 15.0 mph - N/A   Overcast
5:53 AM 28.9 °F 20.4 °F 19.0 °F 67% 29.70 in 10.0 mi NW 9.2 mph - N/A   Overcast
7:53 AM 28.9 °F 19.8 °F 18.0 °F 64% 29.70 in 10.0 mi NW 10.4 mph 20.7 mph N/A   Overcast
8:53 AM 30.0 °F 19.1 °F 17.1 °F 59% 29.70 in 10.0 mi NW 15.0 mph - N/A   Overcast
9:53 AM 30.9 °F 21.7 °F 17.1 °F 57% 29.68 in 10.0 mi NNW 11.5 mph - N/A   Overcast
10:53 AM 32.0 °F 24.8 °F 17.1 °F 54% 29.68 in 10.0 mi WNW 8.1 mph - N/A   Overcast
11:53 AM 34.0 °F 26.0 °F 18.0 °F 52% 29.67 in 10.0 mi NNW 10.4 mph - N/A   Overcast
12:53 PM 34.0 °F 24.2 °F 18.0 °F 52% 29.65 in 10.0 mi WNW 15.0 mph 18.4 mph N/A   Overcast
1:53 PM 34.0 °F 25.5 °F 19.0 °F 54% 29.64 in 10.0 mi NW 11.5 mph - N/A   Overcast
2:53 PM 34.0 °F 25.5 °F 21.0 °F 59% 29.64 in 10.0 mi NNW 11.5 mph - N/A   Overcast
3:53 PM 34.0 °F 23.8 °F 21.9 °F 61% 29.65 in 10.0 mi NW 16.1 mph 19.6 mph N/A   Overcast
4:53 PM 33.1 °F 23.9 °F 21.9 °F 64% 29.65 in 10.0 mi NW 12.7 mph 21.9 mph 0.00 in   Overcast
5:53 PM 32.0 °F 24.2 °F 21.9 °F 66% 29.66 in 10.0 mi NNW 9.2 mph - N/A   Overcast
6:53 PM 30.9 °F 20.7 °F 21.9 °F 69% 29.68 in 10.0 mi NW 13.8 mph - 0.00 in   Overcast
7:53 PM 30.9 °F 21.2 °F 21.0 °F 67% 29.68 in 10.0 mi NW 12.7 mph 24.2 mph N/A   Overcast
8:53 PM 30.0 °F 23.2 °F 21.9 °F 72% 29.70 in 10.0 mi NW 6.9 mph - N/A   Overcast
9:53 PM 30.9 °F 22.2 °F 19.0 °F 61% 29.70 in 10.0 mi NW 10.4 mph - N/A   Overcast
10:53 PM 30.0 °F 24.1 °F 18.0 °F 61% 29.70 in 10.0 mi Variable 5.8 mph - N/A   Overcast
11:53 PM 30.0 °F 22.4 °F 17.1 °F 59% 29.70 in 10.0 mi NW 8.1 mph 18.4 mph N/A   Overcast